TimeEST,TemperatureF,Dew PointF,Humidity,Sea Level PressureIn,VisibilityMPH,Wind Direction,Wind SpeedMPH,Gust SpeedMPH,PrecipitationIn,Events,Conditions,WindDirDegrees,DateUTC
12:53 AM,14.0,10.0,84,30.39,7.0,Calm,Calm,-,N/A,,Clear,0,2014-02-08 05:53:00
1:53 AM,12.9,9.0,84,30.37,8.0,Calm,Calm,-,N/A,,Clear,0,2014-02-08 06:53:00
2:53 AM,10.9,9.0,92,30.37,7.0,Calm,Calm,-,N/A,,Clear,0,2014-02-08 07:53:00
3:53 AM,10.9,9.0,92,30.36,6.0,Calm,Calm,-,N/A,,Clear,0,2014-02-08 08:53:00
4:37 AM,10.4,8.6,92,30.29,3.0,Calm,Calm,-,N/A,,Partly Cloudy,0,2014-02-08 09:37:00
4:53 AM,10.9,8.1,88,30.36,7.0,Calm,Calm,-,N/A,,Clear,0,2014-02-08 09:53:00
5:53 AM,10.9,8.1,88,30.35,8.0,Calm,Calm,-,N/A,,Clear,0,2014-02-08 10:53:00
6:53 AM,10.9,8.1,88,30.35,10.0,Calm,Calm,-,N/A,,Partly Cloudy,0,2014-02-08 11:53:00
7:53 AM,10.9,8.1,88,30.35,6.0,Calm,Calm,-,N/A,,Partly Cloudy,0,2014-02-08 12:53:00
8:53 AM,14.0,10.9,88,30.37,6.0,Calm,Calm,-,N/A,,Overcast,0,2014-02-08 13:53:00
9:53 AM,17.1,10.9,77,30.33,10.0,NNE,3.5,-,N/A,,Overcast,20,2014-02-08 14:53:00
10:53 AM,19.9,7.0,57,30.33,10.0,Calm,Calm,-,N/A,,Mostly Cloudy,0,2014-02-08 15:53:00
11:53 AM,23.0,8.1,53,30.30,10.0,NNE,3.5,-,N/A,,Overcast,20,2014-02-08 16:53:00
12:53 PM,24.1,10.9,57,30.27,10.0,NNW,3.5,-,N/A,,Overcast,340,2014-02-08 17:53:00
1:53 PM,25.0,10.9,55,30.25,10.0,Calm,Calm,-,N/A,,Overcast,0,2014-02-08 18:53:00
2:53 PM,26.1,14.0,60,30.24,10.0,Variable,5.8,-,N/A,,Overcast,0,2014-02-08 19:53:00
3:34 PM,26.6,15.8,64,30.19,5.0,Calm,Calm,-,N/A,,Haze,0,2014-02-08 20:34:00
3:53 PM,25.0,17.1,72,30.25,2.5,NW,3.5,-,0.00,Snow,Light Snow,320,2014-02-08 20:53:00
3:57 PM,24.8,17.6,74,30.19,1.8,NNW,4.6,-,0.00,Snow,Light Snow,340,2014-02-08 20:57:00
4:19 PM,24.8,19.4,80,30.19,2.0,NNW,3.5,-,0.00,Snow,Light Snow,340,2014-02-08 21:19:00
4:27 PM,23.0,19.4,86,30.18,1.2,North,3.5,-,0.00,Snow,Light Snow,10,2014-02-08 21:27:00
4:50 PM,23.0,19.4,86,30.18,1.8,NNE,4.6,-,0.00,Snow,Light Snow,30,2014-02-08 21:50:00
4:53 PM,23.0,19.0,85,30.25,1.8,NNE,4.6,-,0.00,Snow,Light Snow,20,2014-02-08 21:53:00
5:01 PM,21.2,17.6,86,30.18,2.0,NE,4.6,-,0.00,Snow,Light Snow,40,2014-02-08 22:01:00
5:05 PM,21.2,17.6,86,30.18,1.8,NE,4.6,-,0.00,Snow,Light Snow,50,2014-02-08 22:05:00
5:30 PM,21.2,17.6,86,30.18,3.0,NE,4.6,-,0.00,,Overcast,40,2014-02-08 22:30:00
5:53 PM,21.0,17.1,85,30.25,10.0,NNE,4.6,-,0.00,,Overcast,20,2014-02-08 22:53:00
6:53 PM,21.0,17.1,85,30.24,10.0,ENE,3.5,-,N/A,,Overcast,60,2014-02-08 23:53:00
7:49 PM,21.2,17.6,86,30.18,10.0,Calm,Calm,-,N/A,,Overcast,0,2014-02-09 00:49:00
7:53 PM,21.0,17.1,85,30.24,10.0,Calm,Calm,-,N/A,,Overcast,0,2014-02-09 00:53:00
8:53 PM,21.0,17.1,85,30.22,10.0,Calm,Calm,-,N/A,,Overcast,0,2014-02-09 01:53:00
9:53 PM,21.0,18.0,88,30.22,10.0,Calm,Calm,-,N/A,,Overcast,0,2014-02-09 02:53:00
10:53 PM,21.0,17.1,85,30.21,10.0,NNE,3.5,-,N/A,,Overcast,30,2014-02-09 03:53:00
11:53 PM,21.0,18.0,88,30.20,10.0,Calm,Calm,-,N/A,,Overcast,0,2014-02-09 04:53:00